This is the latest recevied weather packets stored in our database for station/object K7NDG. If no packets are shown the sender has not sent any weather packets the latest 10 day(s).
| Time | Temp. | Humidity | Pressure | Rain* | Wind** | Luminosity | Snow |
|---|---|---|---|---|---|---|---|
| 1777932796 | 22.22° C | 59% | 1012.7 hPa | 0 mm | - | 688 W/m² | - |
| 1777932493 | 22.22° C | 59% | 1012.7 hPa | 0 mm | - | 685 W/m² | - |
| 1777932190 | 22.22° C | 59% | 1012.6 hPa | 0 mm | - | 681 W/m² | - |
| 1777931888 | 21.67° C | 60% | 1012.5 hPa | 0 mm | - | 683 W/m² | - |
| 1777931583 | 22.22° C | 59% | 1012.5 hPa | 0 mm | - | 676 W/m² | - |
| 1777931279 | 22.22° C | 60% | 1012.9 hPa | 0 mm | - | 675 W/m² | - |
| 1777930976 | 22.22° C | 60% | 1012.9 hPa | 0 mm | - | 643 W/m² | - |
| 1777930673 | 22.22° C | 60% | 1013 hPa | 0 mm | - | 632 W/m² | - |
| 1777930369 | 22.22° C | 58% | 1012.7 hPa | 0 mm | - | 590 W/m² | - |
| 1777930066 | 22.22° C | 59% | 1012.7 hPa | 0 mm | - | 648 W/m² | - |
| 1777929763 | 22.22° C | 60% | 1012.7 hPa | 0 mm | - | 643 W/m² | - |
| 1777929460 | 22.22° C | 60% | 1012.9 hPa | 0 mm | - | 619 W/m² | - |
| 1777929156 | 22.22° C | 60% | 1012.9 hPa | 0 mm | - | 625 W/m² | - |
| 1777928854 | 22.22° C | 60% | 1013.1 hPa | 0 mm | - | 574 W/m² | - |
| 1777928551 | 22.22° C | 60% | 1013 hPa | 0 mm | - | 608 W/m² | - |
| 1777928248 | 21.67° C | 61% | 1012.6 hPa | 0 mm | - | 581 W/m² | - |
| 1777927946 | 22.22° C | 60% | 1012.9 hPa | 0 mm | - | 488 W/m² | - |
| 1777927644 | 22.22° C | 59% | 1013.1 hPa | 0 mm | - | 601 W/m² | - |
| 1777927342 | 22.22° C | 60% | 1013.1 hPa | 0 mm | - | 602 W/m² | - |
| 1777927041 | 22.22° C | 61% | 1013.1 hPa | 0 mm | - | 552 W/m² | - |
| 1777926738 | 21.67° C | 60% | 1013.2 hPa | 0 mm | - | 619 W/m² | - |
| 1777926438 | 21.67° C | 60% | 1013 hPa | 0 mm | - | 618 W/m² | - |
| 1777926135 | 21.67° C | 59% | 1013.1 hPa | 0 mm | - | 625 W/m² | - |
| 1777925832 | 22.22° C | 60% | 1013 hPa | 0 mm | - | 617 W/m² | - |
| 1777925529 | 21.67° C | 60% | 1013.1 hPa | 0 mm | - | 636 W/m² | - |
* Rain latest hour (hover to see other rain measurements)
** Current wind speed in m/s (hover to see current wind gust speed)